Location: Gombori
(14.9797°N, 2.9419°W)
Time: 20:27:55
(UTC+00:00)

METEOR 2-17 DEB - Pass Details

Date: 30 May 2022
Orbit: 896 x 935 km, 82.5° (Epoch: 02 July)

Event Time Altitude Azimuth Distance (km) Brightness Sun altitude
Rises 21:50:17 0° 352° (N) 3,506 ? -39.8°
Reaches altitude 10° 21:52:45 10° 351° (N) 2,564 ? -40.2°
Enters shadow 21:54:44 22° 348° (NNW) 1,829 ? -40.5°
